EA3ANS-1 Weather Reports


time (UTC)temp
C
wind
direction
speed
KPH
gust
KPH
rain 1hr
cm
rain 24hr
cm
rain mn
cm
humidity
%
barometer
mb
20260507142242 20 124 16.1 14.5 0.00 0.00 0.00 1011.7
20260507141239 20 98 12.9 14.5 0.00 0.00 0.00 1011.8
20260507140242 19 179 19.3 11.3 0.00 0.00 0.00 1011.8
20260507135244 20 191 9.7 12.9 0.00 0.00 0.00 1012.1
20260507134243 20 166 12.9 9.7 0.00 0.00 0.00 1012.0
20260507133246 20 129 14.5 11.3 0.00 0.00 0.00 1012.2
20260507132248 20 141 14.5 8.0 0.00 0.00 0.00 1012.2
20260507131245 20 149 11.3 12.9 0.00 0.00 0.00 1012.2
20260507130242 20 136 14.5 6.4 0.00 0.00 0.00 1012.3
20260507125245 20 142 12.9 22.5 0.00 0.00 0.00 1012.5
20260507124247 20 160 14.5 14.5 0.00 0.00 0.00 1012.6
20260507123246 20 136 16.1 14.5 0.00 0.00 0.00 1012.5
20260507122249 20 176 16.1 9.7 0.00 0.00 0.00 1012.6
20260507121247 20 124 17.7 12.9 0.00 0.00 0.00 1012.6
20260507120250 21 153 12.9 17.7 0.00 0.00 0.00 1012.7
20260507115247 21 127 9.7 11.3 0.00 0.00 0.00 1012.7
20260507114250 21 183 9.7 11.3 0.00 0.00 0.00 1012.8
20260507113244 21 136 11.3 8.0 0.00 0.00 0.00 1012.8
20260507112241 20 114 12.9 8.0 0.00 0.00 0.00 1013.1
20260507111241 20 180 12.9 11.3 0.00 0.00 0.00 1013.2
20260507110243 20 203 9.7 16.1 0.00 0.00 0.00 1013.4
20260507105243 19 18 0.0 3.2 0.00 0.00 0.00 1013.4
20260507104240 20 114 11.3 11.3 0.00 0.00 0.00 1013.5
20260507103241 19 195 4.8 8.0 0.00 0.00 0.00 1013.7
20260507102241 20 136 8.0 6.4 0.00 0.00 0.00 1013.5
20260507101242 19 149 9.7 11.3 0.00 0.00 0.00 1013.9
20260507100245 18 135 12.9 8.0 0.00 0.00 0.00 1014.0
20260507095245 18 73 1.6 1.6 0.00 0.00 0.00 1013.9
20260507094248 18 120 9.7 4.8 0.00 0.00 0.00 1014.0
20260507093242 17 45 4.8 3.2 0.00 0.00 0.00 1014.2
20260507092240 18 188 8.0 4.8 0.00 0.00 0.00 1014.1
20260507091240 17 208 8.0 8.0 0.00 0.00 0.00 1014.2
20260507090243 17 82 3.2 1.6 0.00 0.00 0.00 1013.9
20260507085245 16 195 4.8 4.8 0.00 0.00 0.00 1013.9
20260507084248 16 187 3.2 6.4 0.00 0.00 0.00 1014.1
20260507083250 16 156 4.8 8.0 0.00 0.00 0.00 1014.0
20260507082247 17 174 4.8 3.2 0.00 0.00 0.00 1014.1
20260507081243 16 165 1.6 0.0 0.00 0.00 0.00 1014.2
20260507080245 16 150 0.0 0.0 0.00 0.00 0.00 1014.2
20260507075241 15 167 0.0 0.0 0.00 0.00 0.00 1014.3
20260507074241 15 243 3.2 1.6 0.00 0.00 0.00 1014.5
20260507073242 13 322 0.0 0.0 0.00 0.00 0.00 1014.5
20260507072245 13 322 0.0 0.0 0.00 0.00 0.00 1014.5
20260507071242 12 328 4.8 6.4 0.00 0.00 0.00 1014.6
20260507070244 12 8 4.8 1.6 0.00 0.00 0.00 1014.5
20260507065241 12 304 3.2 3.2 0.00 0.00 0.00 1014.4
20260507064244 12 335 1.6 1.6 0.00 0.00 0.00 1014.3
20260507063243 12 111 0.0 0.0 0.00 0.00 0.00 1014.2
20260507062246 11 134 4.8 4.8 0.00 0.00 0.00 1014.0
20260507061248 12 83 1.6 0.0 0.00 0.00 0.00 1013.9
20260507060246 11 49 0.0 1.6 0.00 0.00 0.00 1013.9
20260507055241 11 357 8.0 3.2 0.00 0.00 0.00 1013.8
20260507054242 11 41 0.0 0.0 0.00 0.00 0.00 1013.6
20260507053243 10 41 0.0 0.0 0.00 0.00 0.00 1013.6
20260507052245 10 350 4.8 6.4 0.00 0.00 0.00 1013.5
20260507051242 10 340 4.8 6.4 0.00 0.00 0.00 1013.6
20260507050244 10 107 0.0 0.0 0.00 0.00 0.00 1013.5
20260507045242 10 107 0.0 0.0 0.00 0.00 0.00 1013.5
20260507044241 10 293 0.0 0.0 0.00 0.00 0.00 1013.5
20260507043243 10 293 0.0 0.0 0.00 0.00 0.00 1013.5
20260507042245 10 288 6.4 0.0 0.00 0.00 0.00 1013.4
20260507041241 10 322 0.0 0.0 0.00 0.00 0.00 1013.4
20260507040244 10 3 0.0 0.0 0.00 0.00 0.00 1013.5
20260507035246 10 312 8.0 8.0 0.00 0.00 0.00 1013.5
20260507034243 10 314 8.0 4.8 0.00 0.00 0.00 1013.4
20260507033246 10 305 6.4 6.4 0.00 0.00 0.00 1013.5
20260507032244 10 34 0.0 0.0 0.00 0.00 0.00 1013.6
20260507031247 10 34 0.0 0.0 0.00 0.00 0.00 1013.6
20260507030247 10 121 4.8 3.2 0.00 0.00 0.00 1013.6
20260507025249 11 163 0.0 0.0 0.00 0.00 0.00 1013.5
20260507024252 11 163 0.0 0.0 0.00 0.00 0.00 1013.4
20260507023249 11 163 0.0 0.0 0.00 0.00 0.00 1013.4
20260507022245 11 163 0.0 0.0 0.00 0.00 0.00 1013.3
20260507021247 11 194 0.0 0.0 0.00 0.00 0.00 1013.3
20260507020241 11 194 0.0 0.0 0.00 0.00 0.00 1013.3
20260507015243 11 194 0.0 0.0 0.00 0.00 0.00 1013.3
20260507014242 11 194 0.0 0.0 0.00 0.00 0.00 1013.5
20260507013245 11 194 0.0 0.0 0.00 0.00 0.00 1013.5
20260507012242 11 194 0.0 0.0 0.00 0.00 0.00 1013.4
20260507011245 11 194 0.0 0.0 0.00 0.00 0.00 1013.4
20260507010247 11 194 0.0 0.0 0.00 0.00 0.00 1013.4
20260507005245 11 194 0.0 0.0 0.00 0.00 0.00 1013.5
20260507004247 11 194 0.0 0.0 0.00 0.00 0.00 1013.6
20260507003249 11 194 0.0 0.0 0.00 0.00 0.00 1013.7
20260507002251 12 194 0.0 0.0 0.00 0.00 0.00 1013.6
20260507001242 11 194 0.0 0.0 0.00 0.00 0.00 1013.8
20260507000241 12 194 0.0 0.0 0.00 0.00 0.00 1013.8
20260506235243 12 194 0.0 0.0 0.00 0.00 0.00 1013.6
20260506234241 12 193 4.8 3.2 0.00 0.00 0.00 1013.7
20260506233241 12 207 0.0 0.0 0.00 0.00 0.00 1013.7
20260506232242 12 207 0.0 0.0 0.00 0.00 0.00 1013.7
20260506231244 12 207 0.0 0.0 0.00 0.00 0.00 1013.7
20260506230241 13 217 0.0 0.0 0.00 0.00 0.00 1013.7
20260506225241 13 217 0.0 0.0 0.00 0.00 0.00 1013.6
20260506224244 13 217 0.0 0.0 0.00 0.00 0.00 1013.5
20260506223246 13 217 0.0 0.0 0.00 0.00 0.00 1013.5
20260506222244 13 217 0.0 0.0 0.00 0.00 0.00 1013.5
20260506221246 13 217 0.0 0.0 0.00 0.00 0.00 1013.5
20260506220244 14 217 0.0 0.0 0.00 0.00 0.00 1013.4
20260506215240 14 217 0.0 0.0 0.00 0.43 0.00 1013.4
20260506214243 14 217 0.0 0.0 0.00 0.43 0.00 1013.4
20260506213241 14 217 0.0 0.0 0.00 0.43 0.00 1013.4
20260506212241 14 217 0.0 0.0 0.00 0.43 0.00 1013.4
20260506211241 15 217 0.0 0.0 0.00 0.43 0.00 1013.3
20260506210242 15 165 3.2 3.2 0.00 0.43 0.00 1013.2
20260506205244 15 115 3.2 3.2 0.00 0.43 0.00 1013.1
20260506204241 15 37 0.0 0.0 0.00 0.43 0.00 1013.0
20260506203242 15 35 3.2 1.6 0.00 0.43 0.00 1012.8
20260506202241 15 37 3.2 0.0 0.00 0.43 0.00 1012.7
20260506201242 15 58 6.4 4.8 0.00 0.43 0.00 1012.6
20260506200243 16 52 0.0 1.6 0.00 0.43 0.00 1012.4
20260506195242 15 31 0.0 0.0 0.00 0.43 0.00 1012.3
20260506194244 16 80 4.8 0.0 0.00 0.43 0.00 1012.1
20260506193241 16 80 1.6 1.6 0.00 0.43 0.00 1011.9
20260506192241 16 80 3.2 1.6 0.00 0.43 0.00 1011.7
20260506191242 16 84 3.2 3.2 0.00 0.43 0.00 1011.6
20260506190241 17 135 4.8 6.4 0.00 0.43 0.00 1011.4
20260506185242 17 169 6.4 11.3 0.00 0.43 0.00 1011.3
20260506184244 17 127 4.8 4.8 0.00 0.43 0.00 1011.1
20260506183246 18 128 6.4 3.2 0.00 0.43 0.00 1011.0
20260506182241 18 166 11.3 4.8 0.00 0.43 0.00 1010.7
20260506181241 18 120 11.3 11.3 0.00 0.43 0.00 1010.7
20260506180242 18 115 11.3 11.3 0.00 0.43 0.00 1010.5
20260506175245 19 145 9.7 6.4 0.00 0.43 0.00 1010.3
20260506174244 19 117 6.4 8.0 0.00 0.43 0.00 1010.3
20260506173246 20 131 6.4 6.4 0.00 0.43 0.00 1010.2
20260506172249 20 113 3.2 4.8 0.00 0.43 0.00 1010.1
20260506171245 19 128 6.4 8.0 0.00 0.43 0.00 1010.0
20260506170244 20 135 8.0 8.0 0.00 0.43 0.00 1010.0
20260506165244 19 143 11.3 14.5 0.00 0.43 0.00 1010.0
20260506164244 19 132 11.3 8.0 0.00 0.43 0.00 1009.9
20260506163244 20 118 9.7 12.9 0.00 0.43 0.00 1009.8
20260506162246 20 158 11.3 12.9 0.00 0.43 0.00 1009.8
20260506161248 20 155 14.5 6.4 0.00 0.43 0.00 1009.6
20260506160246 20 70 12.9 12.9 0.00 0.43 0.00 1009.6
20260506155249 21 138 11.3 11.3 0.00 0.43 0.00 1009.6
20260506154244 21 163 11.3 17.7 0.00 0.43 0.00 1009.6
20260506153244 22 335 3.2 4.8 0.00 0.43 0.00 1009.6
20260506152245 22 134 4.8 6.4 0.00 0.43 0.00 1009.7
20260506151247 22 250 8.0 9.7 0.00 0.43 0.00 1009.7
20260506150250 22 253 3.2 4.8 0.00 0.43 0.00 1009.8
20260506145246 22 235 12.9 16.1 0.00 0.43 0.00 1009.9
20260506144249 22 142 3.2 0.0 0.00 0.43 0.00 1009.9
20260506143243 21 236 14.5 14.5 0.00 0.43 0.00 1010.1